When you browse on this site, cookies collect data to enhance your experience and personalize the content and advertising you see.
Visit our Privacy Policy to learn more. By continuing to use the site, you agree to this use of cookies and data.
  • en Suisse
  • Liste des pays
  • À 7 jours
  • Température de l'eau
  • Carte satellitaire
  • Carte météo
  • Widgets météo
  • user-avatar
    Se connecter

    Météo par heure à Dinajpur

    Ce jour, 25 Juin, Mardi

    Heure Température Précipitation Vent Pression Humidité
    00:00 +36°C° 0 mm 3 m/s 749 mmHg 58%
    01:00 +35°C° 0 mm 3 m/s 749 mmHg 61%
    02:00 +35°C° 0 mm 4 m/s 749 mmHg 63%
    03:00 +34°C° 0 mm 4 m/s 748 mmHg 66%
    04:00 +34°C° 0.7 mm 4 m/s 749 mmHg 67%
    05:00 +34°C° 0.7 mm 4 m/s 749 mmHg 69%
    06:00 +33°C° 0 mm 5 m/s 749 mmHg 72%
    07:00 +34°C° 0 mm 5 m/s 749 mmHg 70%
    08:00 +34°C° 0 mm 5 m/s 749 mmHg 68%
    09:00 +35°C° 0 mm 5 m/s 749 mmHg 66%
    10:00 +37°C° 0 mm 5 m/s 749 mmHg 57%
    11:00 +40°C° 0 mm 4 m/s 749 mmHg 49%
    12:00 +40°C° 0 mm 3 m/s 749 mmHg 43%
    13:00 +42°C° 0 mm 3 m/s 749 mmHg 42%
    14:00 +42°C° 0 mm 3 m/s 748 mmHg 41%
    15:00 +42°C° 0 mm 3 m/s 747 mmHg 40%
    16:00 +40°C° 0 mm 3 m/s 747 mmHg 45%
    17:00 +39°C° 0 mm 3 m/s 747 mmHg 50%
    18:00 +37°C° 0 mm 2 m/s 747 mmHg 56%
    19:00 +37°C° 0 mm 2 m/s 747 mmHg 55%
    20:00 +37°C° 0 mm 2 m/s 748 mmHg 55%
    21:00 +37°C° 0 mm 2 m/s 748 mmHg 55%
    22:00 +37°C° 0 mm 3 m/s 748 mmHg 53%
    23:00 +36°C° 0 mm 4 m/s 748 mmHg 52%

    Demain, 26 Juin, Mercredi

    Heure Température Précipitation Vent Pression Humidité
    00:00 +36°C° 0 mm 5 m/s 748 mmHg 51%
    01:00 +36°C° 0 mm 5 m/s 748 mmHg 54%
    02:00 +35°C° 0 mm 5 m/s 747 mmHg 58%
    03:00 +34°C° 0 mm 5 m/s 747 mmHg 62%
    04:00 +34°C° 0.1 mm 5 m/s 747 mmHg 63%
    05:00 +34°C° 0.1 mm 4 m/s 748 mmHg 65%
    06:00 +34°C° 0.1 mm 3 m/s 748 mmHg 67%
    07:00 +35°C° 0 mm 4 m/s 748 mmHg 62%
    08:00 +36°C° 0 mm 4 m/s 748 mmHg 58%
    09:00 +37°C° 0 mm 5 m/s 748 mmHg 53%
    10:00 +40°C° 0 mm 4 m/s 748 mmHg 48%
    11:00 +41°C° 0 mm 4 m/s 748 mmHg 43%
    12:00 +43°C° 0 mm 3 m/s 747 mmHg 38%
    13:00 +42°C° 0.1 mm 3 m/s 746 mmHg 40%
    14:00 +41°C° 0.1 mm 2 m/s 746 mmHg 42%
    15:00 +40°C° 0.1 mm 2 m/s 745 mmHg 44%
    16:00 +39°C° 0.1 mm 2 m/s 745 mmHg 45%
    17:00 +39°C° 0.1 mm 2 m/s 744 mmHg 46%
    18:00 +39°C° 0.1 mm 3 m/s 744 mmHg 48%
    19:00 +37°C° 0.1 mm 3 m/s 744 mmHg 53%
    20:00 +36°C° 0.1 mm 4 m/s 745 mmHg 58%
    21:00 +35°C° 0.1 mm 4 m/s 745 mmHg 64%
    22:00 +35°C° 0 mm 5 m/s 745 mmHg 62%
    23:00 +35°C° 0 mm 5 m/s 745 mmHg 60%

    Après-demain, 27 Juin, Jeudi

    Heure Température Précipitation Vent Pression Humidité
    00:00 +35°C° 0 mm 5 m/s 745 mmHg 59%
    01:00 +35°C° 0.1 mm 5 m/s 745 mmHg 60%
    02:00 +35°C° 0.1 mm 5 m/s 744 mmHg 61%
    03:00 +34°C° 0.1 mm 5 m/s 744 mmHg 63%
    04:00 +34°C° 0 mm 5 m/s 744 mmHg 65%
    05:00 +34°C° 0 mm 4 m/s 744 mmHg 67%
    06:00 +34°C° 0 mm 4 m/s 744 mmHg 69%
    07:00 +35°C° 0 mm 5 m/s 745 mmHg 62%
    08:00 +37°C° 0 mm 5 m/s 745 mmHg 56%
    09:00 +40°C° 0 mm 5 m/s 746 mmHg 49%
    10:00 +41°C° 0 mm 5 m/s 745 mmHg 44%
    11:00 +43°C° 0 mm 5 m/s 745 mmHg 40%
    12:00 +45°C° 0 mm 5 m/s 744 mmHg 35%
    13:00 +44°C° 0 mm 4 m/s 744 mmHg 35%
    14:00 +44°C° 0 mm 3 m/s 743 mmHg 35%
    15:00 +44°C° 0 mm 3 m/s 742 mmHg 36%
    16:00 +42°C° 0.1 mm 3 m/s 742 mmHg 44%
    17:00 +39°C° 0.1 mm 3 m/s 741 mmHg 52%
    18:00 +37°C° 0.1 mm 3 m/s 741 mmHg 61%
    19:00 +36°C° 0.2 mm 4 m/s 742 mmHg 64%
    20:00 +35°C° 0.2 mm 4 m/s 743 mmHg 66%
    21:00 +34°C° 0.2 mm 5 m/s 743 mmHg 69%
    22:00 +34°C° 0.1 mm 5 m/s 744 mmHg 70%
    23:00 +34°C° 0.1 mm 6 m/s 744 mmHg 70%

    28 Juin, Vendredi

    Heure Température Précipitation Vent Pression Humidité
    00:00 +34°C° 0.1 mm 6 m/s 744 mmHg 70%
    01:00 +34°C° 0 mm 5 m/s 744 mmHg 71%
    02:00 +33°C° 0 mm 4 m/s 743 mmHg 72%
    03:00 +33°C° 0 mm 4 m/s 743 mmHg 73%
    04:00 +33°C° 0.3 mm 4 m/s 743 mmHg 73%
    05:00 +33°C° 0.3 mm 4 m/s 743 mmHg 73%
    06:00 +33°C° 0.3 mm 4 m/s 743 mmHg 73%
    07:00 +34°C° 0.1 mm 4 m/s 744 mmHg 68%
    08:00 +36°C° 0.1 mm 4 m/s 744 mmHg 63%
    09:00 +37°C° 0.1 mm 4 m/s 745 mmHg 58%
    10:00 +38°C° 0 mm 4 m/s 745 mmHg 55%
    11:00 +40°C° 0 mm 4 m/s 744 mmHg 52%
    12:00 +41°C° 0 mm 5 m/s 744 mmHg 48%
    13:00 +41°C° 0.1 mm 4 m/s 744 mmHg 46%
    14:00 +42°C° 0.1 mm 4 m/s 743 mmHg 44%
    15:00 +43°C° 0.1 mm 4 m/s 742 mmHg 42%
    16:00 +42°C° 0 mm 5 m/s 742 mmHg 43%
    17:00 +41°C° 0 mm 5 m/s 742 mmHg 45%
    18:00 +41°C° 0 mm 5 m/s 742 mmHg 47%
    19:00 +39°C° 0.1 mm 6 m/s 742 mmHg 53%
    20:00 +38°C° 0.1 mm 6 m/s 743 mmHg 59%
    21:00 +35°C° 0.1 mm 6 m/s 743 mmHg 65%
    22:00 +35°C° 0.1 mm 6 m/s 744 mmHg 68%
    23:00 +34°C° 0.1 mm 6 m/s 744 mmHg 71%

    29 Juin, Samedi

    Heure Température Précipitation Vent Pression Humidité
    00:00 +33°C° 0.1 mm 6 m/s 744 mmHg 75%
    01:00 +33°C° 0.4 mm 5 m/s 744 mmHg 75%
    02:00 +33°C° 0.4 mm 5 m/s 744 mmHg 76%
    03:00 +33°C° 0.4 mm 4 m/s 743 mmHg 76%
    04:00 +33°C° 0.9 mm 5 m/s 743 mmHg 78%
    05:00 +33°C° 0.9 mm 5 m/s 743 mmHg 80%
    06:00 +32°C° 0.9 mm 5 m/s 743 mmHg 81%
    07:00 +32°C° 0.2 mm 5 m/s 744 mmHg 81%
    08:00 +32°C° 0.2 mm 5 m/s 744 mmHg 81%
    09:00 +33°C° 0.2 mm 5 m/s 745 mmHg 80%
    10:00 +34°C° 0 mm 5 m/s 745 mmHg 75%
    11:00 +35°C° 0 mm 5 m/s 745 mmHg 69%
    12:00 +38°C° 0 mm 6 m/s 744 mmHg 64%
    13:00 +38°C° 0 mm 6 m/s 744 mmHg 62%
    14:00 +38°C° 0 mm 6 m/s 743 mmHg 61%
    15:00 +39°C° 0 mm 6 m/s 742 mmHg 59%
    16:00 +38°C° 0.4 mm 7 m/s 742 mmHg 64%
    17:00 +36°C° 0.4 mm 7 m/s 742 mmHg 68%
    18:00 +34°C° 0.4 mm 7 m/s 742 mmHg 72%
    19:00 +34°C° 1 mm 6 m/s 742 mmHg 75%
    20:00 +33°C° 1 mm 6 m/s 743 mmHg 79%
    21:00 +32°C° 1 mm 5 m/s 744 mmHg 82%
    22:00 +30°C° 1.3 mm 5 m/s 744 mmHg 83%
    23:00 +30°C° 1.3 mm 5 m/s 744 mmHg 85%

    30 Juin, Dimanche

    Heure Température Précipitation Vent Pression Humidité
    00:00 +30°C° 1.3 mm 5 m/s 744 mmHg 86%
    01:00 +30°C° 0.2 mm 5 m/s 744 mmHg 87%
    02:00 +29°C° 0.2 mm 5 m/s 744 mmHg 87%
    03:00 +29°C° 0.2 mm 5 m/s 743 mmHg 88%
    04:00 +29°C° 0 mm 5 m/s 743 mmHg 88%
    05:00 +29°C° 0 mm 5 m/s 743 mmHg 89%
    06:00 +29°C° 0 mm 5 m/s 743 mmHg 89%
    07:00 +30°C° 0 mm 5 m/s 744 mmHg 84%
    08:00 +33°C° 0 mm 5 m/s 744 mmHg 80%
    09:00 +34°C° 0 mm 5 m/s 745 mmHg 75%
    10:00 +36°C° 0 mm 4 m/s 744 mmHg 67%
    11:00 +37°C° 0 mm 4 m/s 744 mmHg 59%
    12:00 +39°C° 0 mm 3 m/s 744 mmHg 52%
    13:00 +40°C° 0 mm 3 m/s 743 mmHg 48%
    14:00 +42°C° 0 mm 3 m/s 742 mmHg 45%
    15:00 +43°C° 0 mm 3 m/s 742 mmHg 42%
    16:00 +42°C° 0 mm 3 m/s 742 mmHg 43%
    17:00 +42°C° 0 mm 4 m/s 741 mmHg 44%
    18:00 +42°C° 0 mm 4 m/s 741 mmHg 46%
    19:00 +40°C° 0 mm 4 m/s 742 mmHg 51%
    20:00 +38°C° 0 mm 4 m/s 743 mmHg 57%
    21:00 +36°C° 0 mm 5 m/s 743 mmHg 62%
    22:00 +36°C° 0.1 mm 4 m/s 743 mmHg 62%
    23:00 +35°C° 0.1 mm 4 m/s 743 mmHg 61%
    Voir plus